Latest Weather Observations for Lord Howe Island

IDN60801

Issued at 10:35 pm EST Wednesday 23 April 2014 (issued every 30 minutes, with the page automatically refreshed every 10 minutes)

About weather observations | Map of weather stations | Latest weather observations for NSW | Other Formats
Station Details ID: 200839 Name: LORD HOWE ISLAND AERO Lat: -31.54 Lon: 159.08 Height: 5.0 m
Data from the previous 72 hours. | See also: Recent months at Lord Howe Island
Date/Time
EST
Temp
°C
App
Temp
°C
Dew
Point
Rel
Hum
%
Delta-T
°C
Wind Press
QNH
hPa
Press
MSL
hPa
Rain
since 9 am
mm
Dir
 
Spd
km/h
Gust
km/h
Spd
kts
Gust
kts
23/10:30pm 19.3 18.6 18.3 94 0.6 N 19 28 10 15 1019.9 - 2.8
23/10:23pm 19.7 19.0 18.2 91 0.9 N 19 30 10 16 1019.8 - 0.8
23/10:00pm 22.0 23.4 17.3 74 2.9 N 6 9 3 5 1019.3 - 0.0
23/09:30pm 21.9 23.1 16.8 73 3.1 N 6 13 3 7 1019.8 - 0.0
23/09:00pm 21.7 22.9 16.9 74 2.9 N 6 9 3 5 1019.7 - 0.0
23/08:30pm 22.0 23.1 16.7 72 3.2 N 6 9 3 5 1019.7 1019.7 0.0
23/08:00pm 21.8 22.3 16.5 72 3.2 N 9 13 5 7 1019.6 - 0.0
23/07:30pm 22.2 22.4 16.8 71 3.3 N 11 20 6 11 1019.4 - 0.0
23/07:00pm 21.7 22.4 16.2 71 3.3 N 7 9 4 5 1019.5 - 0.0
23/06:30pm 21.5 22.6 16.5 73 3.0 N 6 9 3 5 1019.5 - 0.0
23/06:00pm 21.3 21.6 16.0 72 3.2 N 9 13 5 7 1019.3 - 0.0
23/05:30pm 20.2 20.3 15.5 74 2.8 N 9 13 5 7 1018.8 1018.8 0.0
23/05:00pm 21.1 21.8 15.7 71 3.2 N 6 11 3 6 1018.6 - 0.0
23/04:30pm 21.9 22.5 15.7 68 3.7 N 7 13 4 7 1018.6 - 0.0
23/04:00pm 22.8 23.1 15.0 61 4.6 NNW 7 13 4 7 1018.5 - 0.0
23/03:30pm 23.4 23.0 14.2 56 5.4 WNW 9 15 5 8 1018.5 - 0.0
23/03:00pm 23.7 23.4 14.4 56 5.5 WNW 9 15 5 8 1018.8 - 0.0
23/02:30pm 23.6 22.8 14.0 55 5.6 WNW 11 17 6 9 1018.9 1018.9 0.0
23/02:00pm 24.1 22.9 14.0 53 5.9 W 13 19 7 10 1019.0 - 0.0
23/01:30pm 24.1 23.1 13.4 51 6.2 N 11 17 6 9 1019.0 - 0.0
23/01:00pm 23.7 22.9 15.0 58 5.2 N 13 28 7 15 1018.8 - 0.0
23/12:30pm 24.2 23.8 16.1 60 4.9 N 13 20 7 11 1019.2 - 0.0
23/12:00pm 24.2 24.4 15.8 59 5.1 NW 9 19 5 10 1019.8 - 0.0
23/11:30am 24.0 23.6 15.1 57 5.3 N 11 19 6 10 1020.3 1020.3 0.0
23/11:00am 24.1 23.7 16.2 61 4.8 W 13 17 7 9 1020.7 - 0.0
23/10:30am 24.0 24.0 16.3 62 4.7 W 11 15 6 8 1021.2 - 0.0
23/10:00am 23.9 24.2 16.0 61 4.8 W 9 17 5 9 1021.4 - 0.0
23/09:30am 23.4 23.3 15.0 59 5.0 W 9 13 5 7 1021.5 - 0.0
23/09:00am 22.5 22.6 15.6 65 4.1 W 9 11 5 6 1021.9 - 0.0
23/08:30am 22.6 22.7 15.6 64 4.2 W 9 11 5 6 1022.0 1022.0 0.0
23/07:30am 21.8 22.4 15.2 66 3.9 WNW 6 9 3 5 1021.7 - 0.0
23/07:00am 20.2 21.3 15.5 74 2.8 WSW 4 7 2 4 1021.3 - 0.0
23/06:30am 18.5 20.2 15.1 80 2.0 CALM 0 0 0 0 1021.2 - 0.0
23/06:00am 17.4 18.4 14.4 82 1.7 W 2 6 1 3 1021.0 - 0.0
23/05:30am 19.3 19.6 15.0 76 2.5 W 7 9 4 5 1020.9 1020.9 0.0
23/05:00am 19.6 20.1 15.0 75 2.7 WNW 6 9 3 5 1020.9 - 0.0
23/04:30am 20.5 21.3 14.9 70 3.3 WNW 4 11 2 6 1020.8 - 0.0
23/04:00am 20.1 21.3 15.0 72 3.0 NNW 2 7 1 4 1020.7 - 0.0
23/03:30am 19.6 20.4 14.8 74 2.8 WNW 4 7 2 4 1020.5 - 0.0
23/03:00am 20.4 20.7 14.4 68 3.5 NW 6 9 3 5 1020.5 - 0.0
23/02:30am 19.4 20.1 14.6 74 2.8 N 4 11 2 6 1020.5 1020.5 0.0
23/02:00am 20.0 20.2 14.1 69 3.4 NNW 6 11 3 6 1020.6 - 0.0
23/01:30am 20.5 20.4 13.9 66 3.8 NNW 7 9 4 5 1020.9 - 0.0
23/01:00am 20.0 20.2 14.3 69 3.3 NNE 6 9 3 5 1021.1 - 0.0
23/12:30am 21.0 20.5 13.7 63 4.2 N 9 15 5 8 1021.4 - 0.0
23/12:00am 21.5 20.3 14.1 62 4.3 N 13 22 7 12 1021.4 - 0.0
 
Date/Time
EST
Temp
°C
App
Temp
°C
Dew
Point
Rel
Hum
%
Delta-T
°C
Wind Press
QNH
hPa
Press
MSL
hPa
Rain
since 9 am
mm
Dir
 
Spd
km/h
Gust
km/h
Spd
kts
Gust
kts
22/11:30pm 21.8 20.9 13.6 59 4.7 N 11 19 6 10 1021.5 1021.5 0.0
22/11:00pm 21.5 20.3 13.9 62 4.4 N 13 20 7 11 1021.7 - 0.0
22/10:30pm 21.6 20.7 13.8 61 4.5 N 11 20 6 11 1021.8 - 0.0
22/10:00pm 21.5 19.9 12.9 58 4.9 N 13 22 7 12 1022.1 - 0.0
22/09:30pm 21.4 19.8 12.7 57 4.9 NNE 13 22 7 12 1022.0 - 0.0
22/09:00pm 21.3 19.3 14.0 63 4.2 NNE 17 22 9 12 1021.9 - 0.0
22/08:30pm 21.3 19.0 14.0 63 4.2 NE 19 22 10 12 1021.8 1021.8 0.0
22/08:00pm 21.4 19.8 14.0 62 4.3 NNE 15 22 8 12 1021.9 - 0.0
22/07:30pm 21.5 19.6 14.1 62 4.3 NNE 17 20 9 11 1021.7 - 0.0
22/07:00pm 21.2 20.6 14.5 65 3.9 NNE 11 17 6 9 1021.9 - 0.0
22/06:30pm 21.2 20.6 14.5 65 3.9 NNE 11 17 6 9 1021.9 - 0.0
22/06:00pm 20.0 20.0 14.1 69 3.4 N 7 9 4 5 1021.9 - 0.0
22/05:30pm 20.4 19.9 13.8 66 3.8 N 9 15 5 8 1021.8 1021.8 0.0
22/05:00pm 20.6 20.4 13.6 64 4.0 N 7 13 4 7 1021.5 - 0.0
22/04:30pm 22.0 22.2 14.1 61 4.6 N 6 9 3 5 1021.5 - 0.0
22/04:00pm 22.7 22.2 13.9 57 5.1 NNE 9 15 5 8 1021.4 - 0.0
22/03:30pm 23.0 22.0 13.5 55 5.5 NNE 11 17 6 9 1021.6 - 0.0
22/03:00pm 23.2 21.8 13.5 54 5.6 NNE 13 22 7 12 1021.3 - 0.0
22/02:30pm 23.8 22.9 13.7 53 5.9 N 11 19 6 10 1021.4 1021.4 0.0
22/02:00pm 24.0 23.0 13.5 52 6.1 NNW 11 15 6 8 1021.5 - 0.0
22/01:30pm 24.2 23.2 13.5 51 6.2 N 11 17 6 9 1021.5 - 0.0
22/01:00pm 24.0 23.0 13.3 51 6.2 N 11 17 6 9 1021.6 - 0.0
22/12:30pm 23.7 21.6 13.5 52 5.9 NNE 17 20 9 11 1021.8 - 0.0
22/12:00pm 23.9 22.1 13.4 51 6.1 NNE 15 20 8 11 1022.1 - 0.0
22/11:30am 24.1 22.3 13.2 50 6.3 NE 15 20 8 11 1022.5 1022.5 0.0
22/11:00am 24.1 21.9 13.4 51 6.2 NNE 17 22 9 12 1022.8 - 0.0
22/10:30am 24.1 22.1 14.0 53 5.9 NNE 17 24 9 13 1023.1 - 0.0
22/10:00am 24.1 22.2 14.2 54 5.8 NNE 17 20 9 11 1023.3 - 0.0
22/09:30am 23.9 23.1 14.0 54 5.8 N 11 20 6 11 1023.5 - 0.0
22/09:00am 23.7 23.0 14.3 55 5.5 N 11 17 6 9 1023.5 - 0.0
22/08:30am 23.9 24.1 14.6 56 5.5 N 7 11 4 6 1023.8 1023.8 0.0
22/08:00am 22.8 22.0 14.0 57 5.1 N 11 17 6 9 1023.6 - 0.0
22/07:30am 22.5 22.6 14.5 60 4.7 NNW 7 13 4 7 1023.5 - 0.0
22/07:00am 21.6 21.9 14.4 63 4.2 NNW 6 9 3 5 1023.2 - 0.0
22/06:30am 19.1 19.7 14.2 73 2.8 N 4 6 2 3 1023.1 - 0.0
22/06:00am 16.4 17.4 13.2 81 1.8 CALM 0 6 0 3 1022.9 - 0.0
22/05:30am 16.4 17.5 13.4 82 1.7 CALM 0 0 0 0 1022.6 1022.6 0.0
22/05:00am 16.8 16.6 13.0 78 2.1 N 6 7 3 4 1022.3 - 0.0
22/04:30am 15.9 16.8 12.8 82 1.7 CALM 0 0 0 0 1022.3 - 0.0
22/04:00am 16.6 17.5 12.8 78 2.1 CALM 0 4 0 2 1022.3 - 0.0
22/03:30am 17.4 18.1 13.5 78 2.2 N 2 7 1 4 1022.2 - 0.0
22/03:00am 17.6 18.5 13.9 79 2.1 N 2 7 1 4 1022.2 - 0.0
22/02:30am 18.5 18.5 14.3 76 2.4 N 7 9 4 5 1022.1 1022.1 0.0
22/02:00am 17.9 18.7 13.8 77 2.3 N 2 6 1 3 1022.2 - 0.0
22/01:30am 19.1 18.9 13.5 70 3.2 N 7 11 4 6 1022.5 - 0.0
22/01:00am 20.2 19.7 13.7 66 3.7 N 9 13 5 7 1022.6 - 0.0
22/12:30am 19.5 18.9 13.5 68 3.4 N 9 13 5 7 1022.7 - 0.0
22/12:00am 19.0 18.9 13.9 72 2.9 N 7 9 4 5 1022.7 - 0.0
 
Date/Time
EST
Temp
°C
App
Temp
°C
Dew
Point
Rel
Hum
%
Delta-T
°C
Wind Press
QNH
hPa
Press
MSL
hPa
Rain
since 9 am
mm
Dir
 
Spd
km/h
Gust
km/h
Spd
kts
Gust
kts
21/11:30pm 19.5 19.0 13.9 70 3.2 N 9 13 5 7 1022.8 1022.8 0.0
21/11:00pm 20.1 19.5 13.6 66 3.7 N 9 11 5 6 1022.9 - 0.0
21/10:30pm 18.8 19.0 14.1 74 2.7 NNE 6 9 3 5 1022.8 - 0.0
21/10:00pm 18.6 18.5 13.9 74 2.7 NNE 7 9 4 5 1022.7 - 0.0
21/09:30pm 19.9 19.2 14.4 70 3.2 ENE 11 13 6 7 1022.6 - 0.0
21/09:00pm 19.8 18.7 14.3 70 3.2 ENE 13 15 7 8 1022.5 - 0.0
21/08:30pm 19.8 18.7 14.3 70 3.2 ENE 13 17 7 9 1022.4 1022.4 0.0
21/08:00pm 18.9 18.0 13.8 72 2.9 NE 11 15 6 8 1022.4 - 0.0
21/07:30pm 17.9 17.5 14.2 79 2.1 NE 9 13 5 7 1022.3 - 0.0
21/07:00pm 16.4 17.4 13.2 81 1.8 CALM 0 0 0 0 1022.0 - 0.0
21/06:30pm 16.6 17.4 13.6 82 1.7 NE 2 7 1 4 1021.7 - 0.0
21/06:00pm 17.7 17.7 13.6 77 2.3 ESE 6 9 3 5 1021.6 - 0.0
21/05:30pm 18.6 18.4 13.7 73 2.8 ESE 7 9 4 5 1021.4 1021.4 0.0
21/05:00pm 19.8 19.5 13.3 66 3.7 ESE 7 9 4 5 1021.2 - 0.0
21/04:30pm 21.0 20.7 13.3 61 4.4 E 7 9 4 5 1021.1 - 0.0
21/04:00pm 21.8 21.5 13.4 59 4.8 E 7 9 4 5 1020.9 - 0.0
21/03:30pm 22.2 21.9 13.3 57 5.1 ENE 7 11 4 6 1020.7 - 0.0
21/03:00pm 22.4 21.7 13.2 56 5.3 E 9 13 5 7 1020.7 - 0.0
21/02:30pm 23.5 24.3 13.7 54 5.7 NE 2 9 1 5 1020.7 1020.7 0.0
21/02:00pm 22.9 22.5 12.9 53 5.7 E 7 9 4 5 1020.7 - 0.0
21/01:30pm 23.3 23.0 13.4 53 5.7 E 7 11 4 6 1020.8 - 0.0
21/01:00pm 22.2 21.6 13.5 57 5.0 ENE 9 13 5 7 1020.9 - 0.0
21/12:30pm 23.7 23.2 13.9 54 5.7 N 9 15 5 8 1021.0 - 0.0
21/12:00pm 23.4 23.4 13.6 54 5.7 WSW 6 11 3 6 1021.4 - 0.0
21/11:30am 23.2 23.1 13.3 53 5.7 SSE 6 7 3 4 1021.5 1021.5 0.0
21/11:00am 22.8 22.0 13.0 54 5.6 WSW 9 13 5 7 1021.7 - 0.0
21/10:30am 22.6 22.0 13.6 56 5.2 WSW 9 13 5 7 1021.9 - 0.0
21/10:00am 22.4 21.7 13.1 55 5.3 SW 9 15 5 8 1022.1 - 0.0
21/09:30am 22.4 21.8 13.4 56 5.2 SW 9 15 5 8 1022.1 - 0.0
21/09:00am 22.4 21.5 13.8 58 5.0 WSW 11 17 6 9 1022.2 - 0.0
21/08:30am 22.4 21.8 12.3 52 5.7 SSW 7 11 4 6 1022.2 1022.2 0.0
21/08:00am 20.9 20.1 13.0 60 4.5 SSW 9 15 5 8 1022.2 - 0.0
21/07:30am 21.3 19.4 13.0 59 4.7 WSW 15 20 8 11 1022.0 - 0.0
21/07:00am 21.0 20.5 12.5 58 4.8 S 7 15 4 8 1021.6 - 0.0
21/06:30am 19.8 19.4 12.5 62 4.1 SSW 6 11 3 6 1021.4 - 0.0
21/06:00am 19.5 18.4 12.1 62 4.1 S 9 13 5 7 1021.0 - 0.0
21/05:30am 20.6 18.9 12.6 60 4.5 SW 13 20 7 11 1020.8 1020.8 0.0
21/05:00am 20.3 19.0 12.4 60 4.4 SW 11 19 6 10 1020.5 - 0.0
21/04:30am 19.7 18.6 11.9 60 4.3 SSW 9 17 5 9 1020.1 - 0.0
21/04:00am 20.5 18.4 12.5 60 4.5 WSW 15 28 8 15 1019.7 - 0.0
21/03:30am 18.1 17.7 13.1 72 2.8 SSW 7 13 4 7 1019.5 - 0.0
21/03:00am 16.1 17.2 13.4 84 1.5 CALM 0 0 0 0 1019.4 - 0.0
21/02:30am 15.5 16.4 12.8 84 1.5 CALM 0 0 0 0 1019.2 1019.2 0.0
21/02:00am 16.2 17.1 12.8 80 1.9 CALM 0 0 0 0 1019.2 - 0.0
21/01:30am 16.8 16.5 12.8 77 2.2 S 6 11 3 6 1019.4 - 0.0
21/01:00am 15.6 15.4 11.9 78 2.0 NNE 4 7 2 4 1019.4 - 0.0
21/12:30am 14.5 15.0 11.7 83 1.5 CALM 0 0 0 0 1019.5 - 0.0
21/12:00am 14.5 15.0 11.5 82 1.6 CALM 0 0 0 0 1019.5 - 0.0
 
Date/Time
EST
Temp
°C
App
Temp
°C
Dew
Point
Rel
Hum
%
Delta-T
°C
Wind Press
QNH
hPa
Press
MSL
hPa
Rain
since 9 am
mm
Dir
 
Spd
km/h
Gust
km/h
Spd
kts
Gust
kts
20/11:30pm 13.9 13.9 11.1 83 1.5 SSW 2 7 1 4 1019.5 1019.5 0.0
20/11:00pm 13.6 14.0 11.1 85 1.3 CALM 0 0 0 0 1019.4 - 0.0
20/10:30pm 14.3 14.8 11.5 83 1.5 CALM 0 0 0 0 1019.3 - 0.0

Other Formats:

Comma delimited format used in spreadsheet applications
http://www.bom.gov.au/fwo/IDN60801/IDN60801.94995.axf

JavaScript Object Notation format (JSON) in row-major order
http://www.bom.gov.au/fwo/IDN60801/IDN60801.94995.json